Total_Precipitation_Accumulation
0.00 0.00 0.00 0.00 0.00 0.00 0.00 0.00 0.01 0.03 0.07 0.12 0.14 0.12 0.12 0.11 0.12 0.14 0.12 0.12 0.10 0.08 0.09 0.12 0.21 0.35 0.50 0.66 0.86 0.95 0.76 0.62 0.47 0.36 0.36 0.45 0.54 0.58 0.58 0.55 0.53 0.43 0.29
0.00 0.00 0.00 0.00 0.00 0.00 0.00 0.00 0.00 0.00 0.00 0.01 0.02 0.05 0.09 0.12 0.15 0.16 0.14 0.13 0.12 0.09 0.09 0.10 0.14 0.25 0.41 0.59 0.81 1.10 1.02 0.88 0.71 0.52 0.36 0.36 0.43 0.48 0.50 0.53 0.52 0.51 0.42
0.00 0.00 0.00 0.00 0.00 0.00 0.00 0.00 0.00 0.00 0.00 0.00 0.00 0.00 0.01 0.03 0.07 0.12 0.12 0.14 0.16 0.13 0.11 0.12 0.13 0.15 0.24 0.44 0.69 0.99 1.29 1.19 1.01 0.83 0.59 0.37 0.35 0.40 0.44 0.49 0.51 0.50 0.48
0.00 0.00 0.00 0.00 0.00 0.00 0.00 0.00 0.00 0.00 0.00 0.00 0.00 0.00 0.00 0.00 0.00 0.02 0.04 0.09 0.14 0.17 0.15 0.15 0.15 0.14 0.15 0.24 0.45 0.75 1.23 1.35 1.33 1.17 0.99 0.67 0.42 0.36 0.39 0.43 0.50 0.50 0.47
0.00 0.00 0.00 0.00 0.00 0.00 0.00 0.00 0.00 0.00 0.00 0.00 0.00 0.00 0.00 0.00 0.00 0.00 0.00 0.02 0.05 0.11 0.15 0.16 0.16 0.15 0.13 0.14 0.23 0.44 0.83 1.23 1.39 1.36 1.27 1.06 0.71 0.43 0.38 0.40 0.44 0.48 0.47
0.00 0.00 0.00 0.00 0.00 0.00 0.00 0.00 0.00 0.00 0.00 0.00 0.00 0.00 0.00 0.00 0.00 0.00 0.00 0.00 0.01 0.05 0.09 0.12 0.14 0.14 0.13 0.11 0.12 0.21 0.45 0.85 1.26 1.34 1.29 1.27 1.10 0.69 0.44 0.39 0.42 0.47 0.47
0.00 0.00 0.00 0.00 0.00 0.01 0.00 0.00 0.00 0.00 0.01 0.00 0.00 0.00 0.00 0.00 0.00 0.00 0.00 0.00 0.00 0.02 0.06 0.10 0.12 0.13 0.14 0.14 0.11 0.10 0.22 0.49 0.92 1.41 1.41 1.32 1.36 1.13 0.70 0.50 0.46 0.48 0.50
0.00 0.00 0.00 0.01 0.01 0.01 0.00 0.00 0.01 0.02 0.02 0.01 0.03 0.05 0.03 0.00 0.00 0.00 0.00 0.00 0.00 0.00 0.02 0.06 0.11 0.13 0.12 0.13 0.10 0.09 0.10 0.21 0.51 1.05 1.61 1.59 1.51 1.54 1.16 0.74 0.58 0.54 0.57
0.00 0.00 0.00 0.01 0.02 0.01 0.01 0.01 0.02 0.03 0.04 0.02 0.03 0.12 0.18 0.12 0.03 0.00 0.00 0.00 0.00 0.00 0.00 0.02 0.06 0.11 0.13 0.14 0.13 0.11 0.10 0.11 0.21 0.54 1.18 1.78 1.81 1.81 1.67 1.08 0.74 0.62 0.60
0.00 0.00 0.01 0.01 0.01 0.01 0.01 0.02 0.02 0.04 0.07 0.08 0.04 0.06 0.12 0.15 0.17 0.08 0.02 0.03 0.03 0.03 0.02 0.01 0.02 0.06 0.12 0.16 0.18 0.18 0.17 0.14 0.14 0.26 0.65 1.33 1.92 2.01 2.01 1.60 1.00 0.73 0.66
0.00 0.00 0.01 0.01 0.01 0.01 0.01 0.02 0.03 0.04 0.08 0.10 0.11 0.10 0.07 0.06 0.10 0.16 0.07 0.04 0.07 0.08 0.07 0.04 0.05 0.07 0.10 0.17 0.20 0.21 0.24 0.23 0.27 0.27 0.39 0.76 1.56 2.12 2.34 2.20 1.57 0.94 0.74
0.00 0.00 0.00 0.00 0.01 0.01 0.02 0.03 0.04 0.05 0.06 0.07 0.10 0.12 0.15 0.16 0.12 0.14 0.13 0.04 0.03 0.04 0.06 0.08 0.07 0.10 0.13 0.17 0.23 0.31 0.26 0.29 0.42 0.36 0.27 0.39 0.90 1.64 2.25 2.49 2.17 1.46 0.93
0.00 0.00 0.00 0.00 0.00 0.01 0.01 0.03 0.04 0.05 0.04 0.07 0.09 0.11 0.13 0.14 0.14 0.17 0.18 0.10 0.05 0.02 0.01 0.04 0.06 0.08 0.12 0.15 0.20 0.26 0.20 0.23 0.30 0.32 0.21 0.18 0.41 0.92 1.65 2.39 2.60 2.08 1.37
0.00 0.00 0.00 0.00 0.00 0.01 0.01 0.03 0.04 0.04 0.05 0.07 0.08 0.11 0.16 0.13 0.16 0.22 0.26 0.26 0.19 0.06 0.02 0.02 0.04 0.06 0.10 0.15 0.15 0.16 0.13 0.17 0.22 0.26 0.23 0.15 0.18 0.40 0.91 1.73 2.76 3.02 2.29
0.00 0.00 0.00 0.00 0.00 0.01 0.02 0.04 0.05 0.05 0.07 0.09 0.12 0.15 0.19 0.17 0.19 0.22 0.25 0.33 0.41 0.27 0.08 0.02 0.04 0.07 0.13 0.14 0.16 0.15 0.13 0.14 0.16 0.19 0.22 0.21 0.17 0.21 0.39 0.86 1.72 2.91 3.45
0.00 0.00 0.00 0.00 0.01 0.02 0.03 0.05 0.06 0.08 0.11 0.13 0.16 0.20 0.21 0.21 0.21 0.22 0.26 0.29 0.36 0.40 0.22 0.04 0.03 0.07 0.18 0.19 0.17 0.15 0.15 0.16 0.15 0.15 0.17 0.19 0.19 0.20 0.27 0.46 0.90 1.65 2.76
0.00 0.00 0.00 0.01 0.02 0.04 0.06 0.08 0.08 0.10 0.13 0.15 0.18 0.22 0.23 0.25 0.27 0.24 0.27 0.28 0.29 0.31 0.25 0.08 0.03 0.05 0.15 0.21 0.20 0.15 0.15 0.16 0.15 0.16 0.17 0.18 0.19 0.22 0.29 0.38 0.55 0.92 1.56
0.00 0.00 0.00 0.02 0.06 0.09 0.10 0.12 0.13 0.12 0.16 0.18 0.19 0.23 0.25 0.23 0.23 0.22 0.24 0.25 0.23 0.21 0.21 0.12 0.05 0.05 0.10 0.18 0.26 0.27 0.21 0.19 0.18 0.18 0.19 0.21 0.24 0.24 0.26 0.33 0.46 0.66 1.01
0.00 0.00 0.00 0.04 0.12 0.19 0.18 0.15 0.18 0.19 0.18 0.19 0.20 0.23 0.23 0.22 0.22 0.21 0.25 0.24 0.19 0.17 0.19 0.17 0.08 0.06 0.10 0.13 0.24 0.34 0.30 0.26 0.23 0.21 0.21 0.21 0.26 0.29 0.26 0.25 0.32 0.47 0.66
0.00 0.00 0.00 0.02 0.13 0.32 0.35 0.27 0.31 0.27 0.20 0.17 0.13 0.13 0.20 0.30 0.30 0.29 0.29 0.23 0.18 0.16 0.17 0.18 0.12 0.09 0.11 0.14 0.21 0.32 0.38 0.37 0.31 0.26 0.25 0.23 0.26 0.33 0.32 0.23 0.19 0.25 0.43
0.00 0.00 0.00 0.01 0.06 0.41 0.78 0.72 0.62 0.37 0.18 0.09 0.06 0.06 0.16 0.29 0.31 0.40 0.44 0.33 0.23 0.20 0.19 0.20 0.18 0.17 0.18 0.21 0.24 0.27 0.39 0.45 0.42 0.36 0.30 0.25 0.26 0.25 0.27 0.26 0.23 0.23 0.27
0.00 0.00 0.00 0.00 0.02 0.29 0.82 0.89 0.59 0.24 0.11 0.08 0.07 0.06 0.09 0.20 0.22 0.25 0.32 0.34 0.34 0.34 0.31 0.26 0.27 0.28 0.28 0.29 0.28 0.31 0.36 0.45 0.50 0.48 0.41 0.31 0.30 0.32 0.28 0.26 0.27 0.24 0.25
0.00 0.00 0.00 0.00 0.00 0.15 0.65 0.75 0.39 0.15 0.09 0.10 0.07 0.06 0.07 0.16 0.20 0.26 0.23 0.19 0.19 0.29 0.40 0.38 0.37 0.36 0.34 0.31 0.30 0.33 0.34 0.39 0.48 0.61 0.59 0.47 0.39 0.38 0.36 0.40 0.43 0.32 0.27
0.00 0.00 0.00 0.00 0.00 0.07 0.50 0.62 0.29 0.12 0.09 0.08 0.05 0.05 0.05 0.10 0.22 0.31 0.16 0.14 0.19 0.28 0.42 0.45 0.54 0.52 0.40 0.33 0.32 0.37 0.40 0.35 0.37 0.55 0.66 0.64 0.56 0.46 0.50 0.53 0.53 0.41 0.32
0.00 0.00 0.00 0.00 0.00 0.02 0.29 0.52 0.28 0.11 0.07 0.05 0.02 0.03 0.04 0.08 0.18 0.18 0.06 0.08 0.12 0.18 0.25 0.33 0.38 0.43 0.41 0.41 0.45 0.48 0.53 0.46 0.46 0.60 0.70 0.76 0.80 0.68 0.73 0.80 0.73 0.56 0.40
0.00 0.00 0.00 0.00 0.00 0.00 0.13 0.36 0.32 0.13 0.04 0.02 0.02 0.01 0.05 0.12 0.13 0.12 0.05 0.06 0.17 0.16 0.14 0.16 0.19 0.26 0.33 0.39 0.49 0.64 0.80 0.70 0.59 0.73 0.82 0.79 0.96 0.85 0.91 1.03 0.91 0.66 0.46